Printer-friendly version

IAU Minor Planet Center

Minor Planet Center

MPEC 2002-P65 : COMET P/2002 JN16 (LINEAR)

The following Minor Planet Electronic Circular may be linked-to from your own Web pages, but must not otherwise be redistributed electronically.


Read MPEC 2002-P64 Read MPEC 2002-P66


M.P.E.C. 2002-P65                                Issued 2002 Aug. 15, 20:16 UT

     The Minor Planet Electronic Circulars contain information on unusual
         minor planets and routine data on comets.  They are published
   on behalf of Commission 20 of the International Astronomical Union by the
          Minor Planet Center, Smithsonian Astrophysical Observatory,
                          Cambridge, MA 02138, U.S.A.

             Prepared using the Tamkin Foundation Computer Network

                              MPC@CFA.HARVARD.EDU
          URL http://cfa-www.harvard.edu/iau/mpc.html  ISSN 1523-6714

                          COMET P/2002 JN16 (LINEAR)

Observations:
    PK02J16N  C2002 08 05.49104 16 03 43.76 -08 42 55.9          17.5 T      360
    PK02J16N  C2002 08 05.49359 16 03 43.97 -08 42 56.4                      360
    PK02J16N  C2002 08 08.87810 16 09 02.65 -08 52 49.9          17.8 T      170
    PK02J16N  C2002 08 08.88213 16 09 02.79 -08 52 51.2          17.8 T      170
    PK02J16N  C2002 08 08.88520 16 09 03.22 -08 52 51.6          17.8 T      170
    PK02J16N  C2002 08 11.19913 16 12 49.14 -09 00 14.9          18.9 T      848
    PK02J16N  C2002 08 11.20662 16 12 50.05 -09 00 15.2          17.8 T      848
    PK02J16N  C2002 08 11.21543 16 12 50.95 -09 00 17.6          17.8 T      848

Observer details:
170 Observatorio de Begues.  Observer J. Manteca.  0.31-m f/6.3
    Schmidt-Cassegrain + CCD.
360 Kuma Kogen.  Observer A. Nakamura.  0.60-m f/6.0 Ritchey-Chretien + CCD.
848 Tenagra Observatory, Cottage Grove.  Observer M. Schwartz.  Measurer
    P. R. Holvorcem.  0.36-m f/11 Schmidt-Cassegrain + CCD.

Orbital elements:
    P/2002 JN16 (LINEAR)
Epoch 2002 July 25.0 TT = JDT 2452480.5
T 2002 July 27.59418 TT                                 MPC
q   1.7906024            (2000.0)            P               Q
n   0.15151841     Peri.   39.62678     -0.01484035     +0.98830705
a   3.4846495      Node   230.07706     -0.96024489     -0.05639945
e   0.4861456      Incl.   11.41279     -0.27876426     +0.14166256
P   6.50
Residuals in seconds of arc
020509 704  0.1+  0.4-    020530 699  0.1+  0.3-    020610 704  0.9+  0.9-
020509 704  0.3-  0.2+    020530 699  0.2-  0.3-    020610 704  1.1+  1.1+
020509 704  0.5-  0.8+    020531 215  0.1-  0.2+    020611 213  0.5-  1.1-
020509 704  0.2+  0.3-    020531 215  0.6-  0.2-    020611 213  1.0+  0.2-
020509 704  0.1-  0.7-    020531 215  0.3-  0.0     020611 204  0.4+  0.1-
020509 644  0.1+  1.0-    020531 213  0.1+  0.6-    020611 204  0.1+  0.3-
020509 644  0.1+  1.2-    020531 213  0.3-  0.4-    020611 204  0.2+  0.0
020509 644  0.1-  1.5-    020601 170  0.1-  0.3-    020616 620  0.5-  0.6-
020510 704  0.4-  0.0     020601 170  0.3-  0.6-    020616 620  0.9-  0.3-
020510 704  0.4-  0.1-    020601 360  0.4-  0.6-    020616 620  0.2-  1.0-
020510 704  0.6-  0.1+    020601 360  0.2-  0.5-    020618 118  0.4+  0.3-
020510 704 (2.8+  0.6-)   020601 232  0.2+  0.9+    020618 118  0.1+  0.3+
020511 704  0.4+  0.4+    020601 232  0.7-  1.6+    020622 246  0.8-  0.1-
020511 704  0.2+  0.4+    020602 644  0.2-  0.4+    020622 246  0.1-  0.1-
020511 704  0.7+  0.0     020602 644  0.1-  0.5+    020622 246  0.3+  0.1-
020511 704  0.3-  0.3-    020602 644  0.1+  1.1+    020622 246  0.2+  0.4+
020511 704  0.1-  0.1-    020603 644  0.2+  0.0     020622 246  0.5-  0.3+
020512 704  0.5+  0.2+    020603 644  0.1-  0.0     020625 608  0.3+  0.9-
020512 704  0.3+  0.3-    020603 644  0.9-  0.1-    020625 608  0.6+  0.5-
020512 704  0.2-  0.4+    020605 699 (0.5+  3.3-)   020625 608  0.5+  0.5-
020512 704  0.0   0.1-    020605 699  0.4+  0.2+    020701 170  0.2+  0.4-
020512 704  0.2-  0.6+    020605 699  0.4+  0.3-    020701 170  0.4-  0.4+
020512 704  0.1-  0.6+    020605 704  0.6+  0.0     020707 170  0.1+  1.6-
020512 704  0.1-  0.0     020605 699  0.1+  0.1+    020707 170  0.6-  0.1-
020512 704  0.4-  0.2-    020605 704  0.3+  0.2+    020707 246  0.3-  0.3+
020513 704  0.3+  0.7+    020605 704  0.6+  0.0     020707 246  0.1-  0.1-
020513 704  0.1-  0.5+    020605 704  0.3+  0.0     020707 246  0.4-  0.1+
020513 704  0.4-  0.8+    020605 704  0.3+  0.4+    020707 246  0.3-  0.2+
020513 704  0.2-  0.5+    020605 360  0.4-  0.7-    020707 246  0.3-  0.0
020513 704  1.1+  0.7+    020605 360  0.6-  0.6-    020709 704  0.8-  0.8+
020514 704  0.0   0.0     020606 704  0.1+  0.5+    020709 704  1.2-  0.1+
020514 704  0.2-  0.2-    020606 704  0.6+  0.4+    020709 704  0.4+  0.0
020514 704  0.2-  0.2+    020606 704  0.3+  0.9+    020709 704  1.1-  0.7+
020514 704  0.2+  0.0     020606 704  0.4+  0.9+    020709 704  0.2-  0.5+
020516 704  0.5+  0.3-    020606 704  0.5+  1.3+    020723 170  1.2+  0.1+
020516 704  0.6-  0.7-    020607 704  0.2-  0.1+    020723 170  0.1+  0.6+
020516 704  0.5+  0.6-    020607 704  0.5+  0.1-    020726 170  0.4+  1.0-
020516 704  0.1+  0.6-    020607 704  0.7-  1.1+    020726 170  0.8-  0.8-
020516 704  0.2-  0.1-    020608 170  0.6-  1.1-    020726 170  0.1+  0.7-
020517 675  1.2-  0.3+    020609 170  0.4+  1.4-    020726 170  1.6-  0.2+
020517 608  0.1+  0.4-    020609 704  0.4+  0.3+    020803 170  0.3+  0.4-
020517 608  0.3+  1.0-    020609 704  0.3+  0.4+    020803 170  1.5+  2.0+
020517 608  0.6+  1.0-    020609 704  0.3+  0.1+    020805 360  0.4-  0.1+
020521 704  0.1-  0.1+    020609 704  0.1+  0.3+    020805 360  0.6-  0.0
020521 704  0.6-  0.4+    020609 704 (3.8+  2.7-)   020808 170  1.3+  0.4+
020521 704  0.0   0.4+    020609 349  0.7+  0.3-    020808 170 (2.3-  0.2-)
020521 704  0.1+  0.5+    020609 349  0.0   0.4-    020808 170  0.2-  0.0
020521 704  0.4-  1.0+    020609 349  0.6-  0.7-    020811 848  2.0-  0.9-
020522 568 (1.4-  4.0+)   020610 704  1.2+  1.2+    020811 848  0.7+  0.2+
020530 699  0.4-  0.3+    020610 704  0.8+  0.3+    020811 848  1.4+  0.4-
020530 699  0.4-  0.2+    020610 704  1.0+  0.7+

Brian G. Marsden             (C) Copyright 2002 MPC           M.P.E.C. 2002-P65

Read MPEC 2002-P64 Read MPEC 2002-P66


Our Web policy. Index to the CBAT/MPC/ICQ pages.


Valid HTML 4.01!